Regional Weather Roundup
Issued by NWS Glasgow, MT

Home | Current Version | Previous Version | Text Only | Print | Product List | Glossary On
Versions: 1 2 3 4 5 6 7 8 9 10 11 12 13 14 15 16 17 18 19 20 21 22 23 24 25 26 27 28 29 30 31 32 33 34 35 36 37 38 39 40 41 42 43 44 45 46 47 48 49 50
000
ASUS45 KGGW 191915
RWRGGW
HOURLY REGIONAL WEATHER ROUNDUP FOR NORTHEAST MONTANA
NATIONAL WEATHER SERVICE GLASGOW MONTANA
1200 PM MST SUN FEB 19 2017

NOTE: "FAIR" INDICATES FEW OR NO CLOUDS BELOW 12,000 FEET WITH NO
SIGNIFICANT WEATHER AND/OR OBSTRUCTIONS TO VISISBILITY.

NORTHEAST MONTANA


CITY           SKY/WX    TMP DP  RH WIND       PRES   REMARKS
GLASGOW        CLOUDY    34  32  92 SE10      29.45S FOG
PLENTYWOOD       N/A     33  32  96 E12G20      N/A
WOLF POINT     CLOUDY    34  32  92 E9        29.48F FOG
JORDAN           N/A     51  36  56 CALM      29.41F
WINNETT          N/A     48  33  56 N5G14       N/A
SIDNEY         MOSUNNY   39  34  82 NE9       29.48F
GLENDIVE       CLOUDY    41  33  73 CALM      29.45F
MALTA            N/A     42  34  73 NE3         N/A
SCOBEY           N/A     35  27  73 E7        29.50F

FORT PECK REPORTS


CITY           SKY/WX    TMP DP  RH WIND       PRES   REMARKS
FORT PECK        N/A     39  35  86 E13         N/A
THE PINES        N/A     44  32  62 CALM        N/A

SOUTHEAST MONTANA


CITY           SKY/WX    TMP DP  RH WIND       PRES   REMARKS
BILLINGS       CLOUDY    53  34  48 SW13      29.44R
MILES CITY     CLOUDY    47  34  60 NE3       29.43F
BAKER          CLOUDY    51  37  58 SE10      29.45F
LIVINGSTON     PTSUNNY   53  25  33 SW31G39   29.47R

CENTRAL MONTANA


CITY           SKY/WX    TMP DP  RH WIND       PRES   REMARKS
HAVRE          PTSUNNY   36  34  92 CALM      29.43S
LEWISTOWN      CLOUDY    49  34  56 NW12      29.45R
GREAT FALLS    PTSUNNY   47  27  45 SW12      29.44R
CUT BANK       MOSUNNY   44  25  47 W21       29.44R
HELENA         CLOUDY    39  36  89 NW5       29.49R
BUTTE          CLOUDY    38  27  64 SE7       29.53R
BOZEMAN        LGT SNOW  33  32  96 NW16G26   29.58R FOG

WESTERN MONTANA


CITY           SKY/WX    TMP DP  RH WIND       PRES   REMARKS
MISSOULA       MOSUNNY   40  33  76 E8        29.54S
KALISPELL      NOT AVBL

NORTH DAKOTA


CITY           SKY/WX    TMP DP  RH WIND       PRES   REMARKS
WILLISTON      CLOUDY    36  32  85 E7        29.51F
DICKINSON      CLOUDY    48  36  63 SE8       29.43F
MINOT          CLOUDY    39  35  86 E9        29.55S
BISMARCK       CLOUDY    43  35  73 E5        29.52F

SOUTHERN SASKATCHEWAN


CITY           SKY/WX    TMP DP  RH WIND       PRES   REMARKS
REGINA         CLOUDY    36  30  80 SE20G30   29.55F
ESTEVAN        CLOUDY    34  30  86 E20G26    29.55F
SWIFT CURRENT  CLOUDY    37  34  87 S13G20    29.42R




USA.gov is the U.S. government's official web portal to all federal, state and local government web resources and services.